Location: Unspecified
(54.1780°N, 0.0000°E)
Time: 10:28:10
(UTC+00:00)

S-56A Canister/Altair - Pass Details

Date: 16 June 2019
Orbit: 632 x 2500 km, 38.9° (Epoch: 15 July)

Event Time Altitude Azimuth Distance (km) Brightness Sun altitude
Rises 18:54:45 0° 229° (SW) 3,774 11.4 11.3°
Reaches altitude 10° 18:59:01 10° 206° (SSW) 2,491 10.2 10.7°
Maximum altitude 19:01:49 14° 176° (S) 2,039 9.5 10.4°
Drops below altitude 10° 19:04:21 10° 145° (SE) 2,168 9.4 10.0°
Sets 19:07:35 0° 118° (ESE) 2,961 9.9 9.6°
